Location: Emory University Observatory
(33.7903°N, 84.3267°W)
Time: 19:08:18
(UTC-04:00)

ISS - Pass Details

Date: 16 October 2017
Orbit: 401 x 408 km, 51.6° (Epoch: 22 October)

Event Time Altitude Azimuth Distance (km) Brightness Sun altitude
Rises 20:54:51 0° 292° (WNW) 2,320 1.2 -24.2°
Reaches altitude 10° 20:57:41 10° 266° (W) 1,457 0.0 -24.8°
Maximum altitude 20:59:25 14° 233° (SW) 1,251 -0.8 -25.2°
Enters shadow 21:00:22 13° 214° (SW) 1,313 -1.0 -25.4°
